www.pogodaiklimat.ru

Погода и климат >> Архив погоды >> Австрия >> Мариябрунн


ПОГОДА в Мариябрунн

  • Прогноз погоды в Мариябрунн
  • Монитор погоды в Мариябрунн

АРХИВ ПОГОДЫ в Мариябрунн

Время (UTC), дата Ветер
(напр.,м/с)
 
Видим.   Явления Облачность Т
(С)
Тd
(С)
f
(%)
Тe
(С)
Тes
(С)
Комфортность P
(гПа)
Po
(гПа)
Тmin
(С)
Tmax
(С)
R
(мм)
R24
(мм)
S
(см)
01 11.09 штиль 0 н/о н/о +9.7 +8.8 94 +9 +9 1021.8 994.3
02 11.09 штиль 0 н/о н/о +9.0 +8.1 94 +8 +8 1021.9 994.4
03 11.09 штиль 0 н/о н/о +8.5 +7.7 95 +8 +8 1022.0 994.4
04 11.09 штиль 0 н/о н/о +8.1 +7.3 95 +7 +7 1022.2 994.6
05 11.09 штиль 0 н/о н/о +7.9 +7.2 95 +7 +7 1023.1 995.4
06 11.09 штиль 0 н/о н/о +10.9 +9.8 93 +10 +10 1023.2 995.8 +7.7 +17.7
07 11.09 Ю 1 н/о н/о +14.5 +11.2 81 +15 +15 1023.2 996.2
08 11.09 ЮВ 2 н/о н/о +17.1 +11.4 69 +17 +17 1023.4 996.6
09 11.09 ЮВ 2 н/о н/о +18.8 +12.0 65 +20 +20 1023.3 996.7
10 11.09 ЮВ 3 н/о н/о +20.8 +13.1 61 +24 +24 комфорт 1023.1 996.7
11 11.09 ЮВ 3 н/о н/о +21.6 +11.6 53 +24 +24 комфорт 1023.0 996.6
13 11.09 ЮВ 3 н/о н/о +22.9 +12.3 51 +26 +26 жарко 1022.5 996.3
14 11.09 Ю 3 н/о н/о +22.6 +11.5 49 +25 +25 комфорт 1022.3 996.0
15 11.09 Ю 2 н/о н/о +22.9 +11.3 48 +25 +25 комфорт 1022.2 996.0
16 11.09 ЮВ 2 н/о н/о +22.0 +10.9 49 +24 +24 комфорт 1022.5 996.2
17 11.09 штиль 0 н/о н/о +19.1 +12.2 64 +20 +20 1023.3 996.7
18 11.09 ЮЗ 1 н/о н/о +16.0 +12.5 80 +17 +17 1024.0 997.1 +10.1 +23.3
19 11.09 штиль 0 н/о н/о +14.5 +12.3 87 +14 +14 1025.0 997.9
20 11.09 штиль 0 н/о н/о +13.4 +11.8 90 +13 +13 1025.9 998.7
21 11.09 штиль 0 н/о н/о +12.7 +11.2 91 +12 +12 1026.3 999.0
22 11.09 штиль 0 н/о н/о +12.2 +11.0 92 +12 +12 1026.6 999.3
23 11.09 штиль 0 н/о н/о +11.8 +10.8 94 +11 +11 1027.0 999.6
00 12.09 штиль 0 н/о н/о +12.3 +11.3 94 +12 +12 1026.9 999.6
01 12.09 З 3 н/о н/о +16.1 +12.4 79 +16 +16 1026.7 999.7
02 12.09 З 3 н/о н/о +16.2 +12.5 79 +16 +16 1027.1 1000.1
03 12.09 З 1 н/о н/о +15.9 +12.3 79 +17 +17 1027.5 1000.5
04 12.09 З 2 н/о н/о +15.1 +12.1 82 +15 +15 1028.2 1001.1
05 12.09 С 1 н/о н/о +14.5 +12.1 86 +15 +15 1029.0 1001.8
06 12.09 С 1 н/о н/о +16.3 +12.7 79 +17 +17 1029.2 1002.2 +11.7 +16.7
07 12.09 З 2 н/о н/о +19.0 +12.7 67 +21 +21 комфорт 1029.7 1002.9
08 12.09 З 3 н/о н/о +20.4 +11.5 57 +23 +23 комфорт 1030.0 1003.3
09 12.09 З 3 н/о н/о +21.2 +12.3 57 +23 +23 комфорт 1030.4 1003.8
10 12.09 З 4 н/о н/о +22.2 +12.5 54 +25 +25 комфорт 1030.3 1003.8
11 12.09 З 5 н/о н/о +22.7 +11.8 50 +25 +25 комфорт 1030.1 1003.6
12 12.09 З 5 н/о н/о +22.9 +10.6 46 +25 +25 комфорт 1029.9 1003.5
13 12.09 З 5 н/о н/о +23.2 +10.3 44 +25 +25 комфорт 1029.6 1003.2
14 12.09 З 5 н/о н/о +23.0 +10.8 46 +25 +25 комфорт 1029.6 1003.2
15 12.09 З 5 н/о н/о +22.3 +10.8 48 +24 +24 комфорт 1029.6 1003.1
16 12.09 З 3 н/о н/о +21.4 +10.6 50 +23 +23 комфорт 1029.6 1003.0
17 12.09 З 2 н/о н/о +20.1 +10.8 55 +22 +22 комфорт 1029.8 1003.1
18 12.09 З 2 н/о н/о +18.4 +11.0 62 +19 +19 1030.1 1003.3 +15.8 +23.7
20 12.09 СЗ 1 н/о н/о +16.1 +11.3 73 +17 +17 1031.1 1004.0
21 12.09 С 1 н/о н/о +14.8 +11.2 79 +15 +15 1031.3 1004.1
22 12.09 З 1 н/о н/о +14.3 +11.4 83 +15 +15 1031.5 1004.2
23 12.09 штиль 0 н/о н/о +13.9 +11.6 86 +13 +13 1031.5 1004.2
00 13.09 З 1 н/о н/о +14.0 +11.6 85 +14 +14 1031.5 1004.2
01 13.09 штиль 0 н/о н/о +13.2 +11.4 89 +13 +13 1031.4 1004.0
02 13.09 штиль 0 н/о н/о +13.0 +11.6 91 +12 +12 1031.2 1003.8
03 13.09 штиль 0 н/о н/о +13.6 +12.0 90 +13 +13 1030.9 1003.6
04 13.09 штиль 0 н/о н/о +13.5 +11.9 90 +13 +13 1030.9 1003.6
05 13.09 штиль 0 н/о н/о +12.8 +11.6 92 +12 +12 1031.2 1003.8
06 13.09 штиль 0 н/о н/о +14.3 +12.5 89 +14 +14 1030.9 1003.7 +12.8 +18.7
07 13.09 ЮЗ 1 н/о н/о +18.0 +13.7 76 +19 +19 1030.6 1003.7
08 13.09 З 2 н/о н/о +21.3 +12.4 57 +24 +24 комфорт 1030.6 1004.0
09 13.09 З 2 н/о н/о +21.7 +13.1 58 +24 +24 комфорт 1030.3 1003.8
10 13.09 З 3 н/о н/о +23.9 +14.2 55 +26 +26 жарко 1029.5 1003.2
11 13.09 З 3 н/о н/о +24.2 +13.9 53 +27 +27 жарко 1029.4 1003.1
12 13.09 З 3 н/о н/о +25.3 +14.0 50 +28 +28 жарко 1028.9 1002.7
13 13.09 З 4 н/о н/о +26.0 +14.2 48 +28 +28 жарко 1028.5 1002.4
14 13.09 З 2 н/о н/о +23.7 +14.3 56 +26 +26 жарко 1028.7 1002.4
15 13.09 З 2 н/о н/о +23.7 +15.2 59 +27 +27 жарко 1028.5 1002.2
16 13.09 З 2 н/о н/о +24.0 +14.8 56 +27 +27 жарко 1028.4 1002.1
17 13.09 штиль 0 н/о н/о +22.7 +15.4 63 +27 +27 душно 1028.6 1002.2
18 13.09 штиль 0 н/о н/о +21.2 +16.4 74 +25 +25 комфорт 1029.1 1002.6 +14.1 +26.3
19 13.09 штиль 0 н/о н/о +20.1 +16.4 79 +23 +23 комфорт 1029.6 1003.0
20 13.09 З 1 н/о н/о +19.4 +16.1 81 +22 +22 комфорт 1029.8 1003.1
21 13.09 З 1 н/о н/о +19.1 +15.3 79 +22 +22 комфорт 1030.1 1003.4
22 13.09 штиль 0 н/о н/о +18.8 +14.6 77 +20 +20 1030.3 1003.5
23 13.09 СЗ 1 н/о н/о +17.3 +14.2 82 +18 +18 1030.5 1003.6
00 14.09 штиль 0 н/о н/о +16.8 +13.8 82 +17 +17 1030.6 1003.6
01 14.09 З 1 н/о н/о +16.5 +13.9 85 +17 +17 1030.6 1003.6
02 14.09 штиль 0 н/о н/о +16.2 +14.0 87 +16 +16 1030.8 1003.8
03 14.09 штиль 0 н/о н/о +16.4 +14.0 86 +16 +16 1030.8 1003.8
04 14.09 штиль 0 н/о н/о +16.3 +14.1 87 +16 +16 1031.4 1004.4
05 14.09 В 1 н/о н/о +16.8 +11.9 73 +18 +18 1031.7 1004.7
06 14.09 штиль 0 н/о н/о +16.7 +11.5 71 +17 +17 1032.4 1005.3 +16.1 +21.3
07 14.09 штиль 0 н/о н/о +16.8 +11.3 70 +17 +17 1032.9 1005.8
08 14.09 СВ 1 н/о н/о +17.4 +10.6 64 +18 +18 1033.0 1006.0
09 14.09 В 2 н/о н/о +19.3 +11.2 59 +21 +21 комфорт 1033.0 1006.2
10 14.09 ЮВ 1 н/о н/о +20.1 +11.7 58 +23 +23 комфорт 1032.3 1005.6
11 14.09 штиль 0 н/о н/о +20.1 +11.1 56 +21 +21 комфорт 1031.8 1005.1 0.0
12 14.09 СВ 1 н/о н/о +20.5 +11.4 56 +23 +23 комфорт 1031.4 1004.7 0.0
13 14.09 СВ 1 н/о н/о +21.2 +11.5 54 +23 +23 комфорт 1030.9 1004.3
14 14.09 З 1 н/о н/о +22.3 +12.9 55 +25 +25 комфорт 1030.2 1003.7
15 14.09 штиль 0 н/о н/о +21.7 +11.0 51 +24 +24 комфорт 1029.8 1003.3
16 14.09 штиль 0 н/о н/о +20.2 +10.9 55 +22 +22 комфорт 1029.1 1002.4
17 14.09 З 1 н/о н/о +18.0 +11.6 66 +19 +19 1029.4 1002.5
18 14.09 штиль 0 н/о н/о +15.1 +12.0 82 +15 +15 1030.1 1003.0 +15.0 +22.4 0.0
19 14.09 штиль 0 н/о н/о +13.6 +11.5 87 +13 +13 1030.5 1003.2
20 14.09 штиль 0 н/о н/о +12.5 +11.0 91 +12 +12 1030.7 1003.3
21 14.09 штиль 0 н/о н/о +11.5 +10.3 92 +11 +11 1031.0 1003.5
22 14.09 штиль 0 н/о н/о +10.6 +9.6 94 +10 +10 1031.2 1003.6
23 14.09 штиль 0 н/о н/о +9.9 +9.0 94 +9 +9 1031.2 1003.5
00 15.09 штиль 0 н/о н/о +9.6 +8.6 93 +9 +9 1030.4 1002.7
01 15.09 штиль 0 н/о н/о +8.7 +7.8 94 +8 +8 1030.1 1002.3
02 15.09 штиль 0 н/о н/о +8.1 +7.3 95 +7 +7 1029.4 1001.6
03 15.09 штиль 0 н/о н/о +7.6 +6.8 95 +7 +7 1029.4 1001.5
04 15.09 штиль 0 н/о н/о +7.3 +6.5 95 +6 +6 1029.0 1001.1
05 15.09 штиль 0 н/о н/о +7.1 +6.4 95 +6 +6 1029.0 1001.1
06 15.09 штиль 0 н/о н/о +9.4 +8.3 93 +9 +9 1028.5 1000.8 +7.0 +15.3
07 15.09 ЮВ 1 н/о н/о +13.4 +9.8 79 +14 +14 1028.1 1000.8
08 15.09 ЮВ 2 н/о н/о +16.5 +9.4 63 +17 +17 1027.1 1000.1
09 15.09 ЮВ 3 н/о н/о +18.1 +9.7 58 +18 +18 1026.6 999.8
10 15.09 ЮВ 2 н/о н/о +19.5 +11.0 58 +21 +21 комфорт 1025.8 999.2
11 15.09 ЮВ 2 н/о н/о +20.8 +11.1 54 +23 +23 комфорт 1024.9 998.4
12 15.09 ЮВ 1 н/о н/о +22.3 +12.7 55 +25 +25 комфорт 1024.1 997.8
13 15.09 ЮВ 2 н/о н/о +23.1 +12.7 52 +26 +26 жарко 1023.2 997.0
14 15.09 ЮВ 2 н/о н/о +23.7 +13.2 52 +26 +26 жарко 1022.5 996.3
15 15.09 ЮВ 3 н/о н/о +23.8 +13.6 53 +26 +26 жарко 1021.5 995.4
16 15.09 Ю 3 н/о н/о +23.2 +14.0 56 +27 +27 душно 1020.8 994.6
17 15.09 Ю 1 н/о н/о +20.2 +14.7 71 +24 +24 комфорт 1020.5 994.1
18 15.09 штиль 0 н/о н/о +17.0 +14.3 84 +17 +17 1020.9 994.2 +8.5 +24.1
19 15.09 штиль 0 н/о н/о +15.3 +13.5 89 +15 +15 1021.2 994.3
20 15.09 штиль 0 н/о н/о +14.2 +12.9 92 +14 +14 1021.3 994.3
21 15.09 штиль 0 н/о н/о +13.4 +12.4 94 +13 +13 1021.2 994.1
22 15.09 штиль 0 н/о н/о +12.8 +11.9 94 +12 +12 1021.1 994.0
23 15.09 штиль 0 н/о н/о +12.3 +11.5 95 +12 +12 1021.2 994.0
00 16.09 В 1 н/о н/о +12.7 +11.9 95 +13 +13 1020.6 993.5
01 16.09 штиль 0 н/о н/о +12.5 +11.8 95 +12 +12 1020.4 993.3
02 16.09 штиль 0 н/о н/о +12.4 +11.6 95 +12 +12 1020.4 993.3
03 16.09 штиль 0 н/о н/о +11.9 +11.2 95 +11 +11 1020.1 992.9
04 16.09 штиль 0 н/о н/о +12.1 +11.3 95 +11 +11 1019.9 992.7
05 16.09 штиль 0 н/о н/о +12.0 +11.3 95 +11 +11 1019.9 992.7
06 16.09 штиль 0 н/о н/о +14.6 +13.9 96 +14 +14 1019.3 992.4 +11.8 +17.4
07 16.09 штиль 0 н/о н/о +19.5 +16.4 82 +21 +21 комфорт 1019.3 992.9
08 16.09 З 1 н/о н/о +20.9 +15.8 73 +25 +25 комфорт 1019.6 993.3
09 16.09 З 3 н/о н/о +22.9 +15.5 63 +27 +27 душно 1019.2 993.1
10 16.09 З 2 н/о н/о +23.5 +13.2 52 +26 +26 жарко 1019.0 992.9
11 16.09 З 3 н/о н/о +24.5 +15.6 58 +28 +28 душно 1017.9 992.0
12 16.09 З 2 н/о н/о +25.3 +14.6 52 +28 +28 жарко 1017.1 991.2
13 16.09 З 1 н/о н/о +25.1 +16.5 59 +29 +29 душно 1016.3 990.5
14 16.09 З 2 н/о н/о +25.4 +12.3 44 +27 +27 жарко 1015.6 989.8
15 16.09 З 2 н/о н/о +25.8 +12.8 44 +28 +28 жарко 1015.3 989.5
16 16.09 З 2 н/о н/о +24.8 +12.6 47 +27 +27 жарко 1015.0 989.1
17 16.09 З 1 н/о н/о +22.9 +13.6 56 +26 +26 жарко 1014.9 988.9
18 16.09 З 1 н/о н/о +22.4 +13.4 57 +25 +25 комфорт 1015.2 989.1 +13.7 +26.7
19 16.09 штиль 0 н/о н/о +19.8 +14.4 71 +22 +22 комфорт 1015.5 989.2
20 16.09 штиль 0 н/о н/о +18.2 +14.4 78 +18 +18 1016.1 989.6
21 16.09 штиль 0 н/о н/о +17.4 +14.4 83 +17 +17 1016.2 989.7
22 16.09 ЮЗ 1 н/о н/о +17.0 +14.4 85 +18 +18 1016.2 989.6
23 16.09 штиль 0 н/о н/о +16.9 +14.2 84 +17 +17 1015.9 989.3
00 17.09 штиль 0 н/о н/о +16.7 +14.1 85 +17 +17 1015.4 988.8
01 17.09 ЮВ 1 н/о н/о +16.1 +13.7 86 +17 +17 1015.4 988.8
02 17.09 штиль 0 н/о н/о +15.7 +13.8 88 +15 +15 1015.4 988.7
03 17.09 СВ 1 н/о н/о +16.0 +13.6 86 +17 +17 1015.4 988.7
04 17.09 штиль 0 н/о н/о +15.8 +13.6 87 +16 +16 1015.2 988.5
05 17.09 штиль 0 н/о н/о +15.9 +14.1 89 +16 +16 1015.5 988.8 0.0
06 17.09 З 1 н/о н/о +17.3 +15.1 87 +18 +18 1015.6 989.1 +15.6 +22.5 0.0
07 17.09 З 2 н/о н/о +18.5 +12.7 69 +20 +20 1016.1 989.6 0.0
08 17.09 СЗ 1 н/о н/о +19.0 +13.3 70 +21 +21 комфорт 1016.3 989.9
09 17.09 С 1 н/о н/о +17.8 +13.3 75 +19 +19 1016.5 990.0 0.0
10 17.09 штиль 0 н/о н/о +16.8 +12.9 78 +17 +17 1016.6 990.0 0.0
11 17.09 З 2 н/о н/о +15.7 +11.5 76 +16 +16 1016.6 989.9
12 17.09 СЗ 1 н/о н/о +15.3 +11.5 78 +16 +16 1016.3 989.5 0.0
13 17.09 З 2 н/о н/о +16.0 +11.8 76 +16 +16 1015.7 989.0 0.0
14 17.09 штиль 0 н/о н/о +16.5 +12.4 77 +16 +16 1015.0 988.4
15 17.09 штиль 0 н/о н/о +16.9 +13.1 78 +17 +17 1014.6 988.0 0.0
16 17.09 штиль 0 н/о н/о +17.0 +12.9 77 +17 +17 1013.9 987.4
17 17.09 С 1 н/о н/о +16.4 +13.3 82 +17 +17 1014.0 987.4
18 17.09 З 2 н/о н/о +17.0 +12.1 73 +17 +17 1014.5 987.9 +15.2 +19.3 0.0
19 17.09 З 2 н/о н/о +17.0 +11.3 69 +17 +17 1015.2 988.6
20 17.09 З 2 н/о н/о +16.3 +11.0 71 +16 +16 1016.0 989.3
21 17.09 З 2 н/о н/о +15.6 +10.6 72 +16 +16 1016.3 989.6
22 17.09 З 3 н/о н/о +15.8 +10.1 69 +15 +15 1016.8 990.1
23 17.09 З 3 н/о н/о +15.9 +9.8 67 +15 +15 1017.2 990.5
00 18.09 З 3 н/о н/о +15.6 +9.1 65 +15 +15 1017.9 991.1

 

Местоположение метеостанции Мариябрунн (Австрия): широта 48.20 долгота 16.23 высота над уровнем моря 227 м.

В архиве по умолчанию представлена погода в Мариябрунн за последнюю неделю. Архивные данные за месяц целиком и за предыдущие месяцы, начиная с января 2011 года, Вы можете получить, выбрав интересующий диапазон дат из раскрывающегося списка и нажав кнопку "Ввод!".


*Определитесь, кто Вы:
робот инопланетянин человек

Внимание! Время в таблицах - всемирное. Для получения местного времени необходимо прибавить поправку, которая равна 1 ч.

Смотрите также архив погоды в соседних городах и на ближайших метеорологических станциях:

Погода в Вене город (Австрия) (10 км)
Погода в Вене (Австрия) (12 км)
Погода в Тульн-ан-дер-Донау (Австрия) (16 км)
Погода в Вене Донауфельд (Австрия) (16 км)
Погода в Вене электроподстанция (Австрия) (16 км)
Погода в Гумпольдскирхене (Австрия) (19 км)
Погода в Штоккерау (Австрия) (20 км)
Погода в Грос-Энцерсдорфе (Австрия) (25 км)
Погода в Вене аэропорт (Австрия) (27 км)
Погода в Зайберсдорфе (Австрия) (32 км)

Пояснения к столбцам:

Ветер - указаны скорость ветра в м/с - средняя за 10 мин, порывы в срок и между сроками (в фигурных скобках) и направление, откуда дует ветер: С - северный, СВ - северо-восточный, В - восточный, ЮВ - юго-восточный, Ю - южный, ЮЗ - юго-западный, З - западный, СЗ - северо-западный.
Видимость - горизонтальная дальность видимости в метрах или километрах. При видимости от 1 до 10 км при отсутствии осадков обычно наблюдается дымка, при ухудшении видимости до 1 км и менее - туман. В сухую погоду видимость может ухудшаться дымом, пылью или мглою.
Явления - указаны атмосферные явления, наблюдавшиеся в срок или в последний час перед сроком; фигурными скобками обозначены явления, наблюдавшиеся между сроками (за 1-3 часа до срока); квадратными скобками обозначены град или гололедные отложения с указанием их диаметра в мм.
Облачность - указаны через наклонную черту общая и нижняя облачность в баллах и высота нижней границы облаков в метрах; квадратными скобками обозначены формы облаков: Ci - перистые, Cs - перисто-слоистые, Cc - перисто-кучевые, Ac - высококучевые, As - высокослоистые, Sc - слоисто-кучевые, Ns - слоисто-дождевые, Cu - кучевые, Cb - кучево-дождевые. Подробнее классификацию облаков см. в Атласе облаков (PDF).
T - Температура воздуха - температура, измеренная на высоте 2 м над землей.
Td - Температура точки росы - температура, при понижении до которой содержащийся в воздухе водяной пар достигнет насыщения.
f - Относительная влажность воздуха - влажноcть воздуха, измеренная на высоте 2 м над землей.
Te - Эффективная температура - температура, которую ощущает одетый по сезону человек в тени. Характеристика душности погоды. При расчете учитывается влияние влажности воздуха и скорости ветра на теплоощущения человека.
Tes - Эффективная температура на солнце - температура, которую ощущает человек, с поправкой на солнечный нагрев. Характеристика знойности погоды. Зависит от высоты солнца над горизонтом, облачности и скорости ветра. Ночью, в пасмурную погоду, а также при ветре 12 м/с и более поправка равна нулю.
P - Атмосферное давление - приведенное к уровню моря атмосферное давление.
Po - Атмосферное давление - измеренное на уровне метеостанции атмосферное давление.
Tmin - Минимальная температура - минимум температуры воздуха на высоте 2 м над землей.
Tmax - Максимальная температура - максимум температуры воздуха на высоте 2 м над землей.
R - Количество осадков - Количество выпавших осадков за период времени, мм. При наведении курсора мыши на число - период времени, за который выпало указанное количество осадков.
R24 - Количество осадков - Количество выпавших осадков за 24 часа, мм.
S - Снежный покров - Высота снежного покрова, см. При наведении курсора мыши на число - состояние снежного покрова и степень покрытия местности в баллах.